Time,TemperatureF,DewpointF,PressureIn,WindDirection,WindDirectionDegrees,WindSpeedMPH,WindSpeedGustMPH,Humidity,HourlyPrecipIn,Conditions,Clouds,dailyrainin,SoftwareType,DateUTC
2013-02-01 00:00:00,73.8,69.7,29.65,East,90,1.4,4.0,87,0.00,,,0.00,WSDL version 420,2013-01-31 13:00:00,
2013-02-01 00:05:00,73.8,69.8,29.65,East,79,2.9,3.6,88,0.00,,,0.00,WSDL version 420,2013-01-31 13:05:00,
2013-02-01 00:10:00,73.8,69.9,29.65,East,90,2.0,4.7,88,0.00,,,0.00,WSDL version 420,2013-01-31 13:10:00,
2013-02-01 00:15:00,73.8,69.9,29.62,East,94,3.0,4.7,88,0.00,,,0.00,WSDL version 420,2013-01-31 13:15:00,
2013-02-01 00:20:00,73.8,69.9,29.62,East,79,2.7,4.3,88,0.00,,,0.00,WSDL version 420,2013-01-31 13:20:00,
2013-02-01 00:25:00,73.6,69.8,29.62,East,96,1.8,4.0,88,0.00,,,0.00,WSDL version 420,2013-01-31 13:25:00,
2013-02-01 00:30:00,73.6,69.7,29.62,East,87,2.3,3.6,88,0.00,,,0.00,WSDL version 420,2013-01-31 13:30:00,
2013-02-01 00:35:00,73.6,70.0,29.62,East,90,1.9,3.8,89,0.00,,,0.00,WSDL version 420,2013-01-31 13:35:00,
2013-02-01 00:40:00,73.5,70.0,29.62,ENE,70,1.7,4.9,89,0.00,,,0.00,WSDL version 420,2013-01-31 13:40:00,
2013-02-01 00:45:00,73.4,69.9,29.62,East,96,0.1,4.9,89,0.00,,,0.00,WSDL version 420,2013-01-31 13:45:00,
2013-02-01 00:50:00,73.4,70.0,29.62,ENE,64,2.5,4.9,90,0.00,,,0.00,WSDL version 420,2013-01-31 13:50:00,
2013-02-01 00:55:00,73.4,70.2,29.62,East,84,2.7,4.9,90,0.00,,,0.00,WSDL version 420,2013-01-31 13:55:00,
2013-02-01 01:02:00,73.4,69.9,29.62,ENE,75,2.6,5.8,89,0.00,,,0.00,WSDL version 420,2013-01-31 14:02:00,
2013-02-01 01:07:00,73.4,70.2,29.62,East,87,3.2,5.8,90,0.00,,,0.00,WSDL version 420,2013-01-31 14:07:00,
2013-02-01 01:12:00,73.4,69.9,29.62,East,87,2.7,5.6,89,0.00,,,0.00,WSDL version 420,2013-01-31 14:12:00,
2013-02-01 01:17:00,73.4,69.9,29.62,ESE,103,1.7,4.9,89,0.00,,,0.00,WSDL version 420,2013-01-31 14:17:00,
2013-02-01 01:22:00,73.3,69.8,29.62,East,87,0.4,4.9,89,0.00,,,0.00,WSDL version 420,2013-01-31 14:22:00,
2013-02-01 01:27:00,73.2,69.8,29.62,East,90,2.8,4.7,90,0.00,,,0.00,WSDL version 420,2013-01-31 14:27:00,
2013-02-01 01:32:00,73.2,70.1,29.62,North,6,2.2,4.7,90,0.00,,,0.00,WSDL version 420,2013-01-31 14:32:00,
2013-02-01 01:37:00,73.1,70.0,29.62,East,94,1.9,4.5,90,0.00,,,0.00,WSDL version 420,2013-01-31 14:37:00,
2013-02-01 01:42:00,73.0,69.5,29.62,East,93,0.0,3.4,89,0.00,,,0.00,WSDL version 420,2013-01-31 14:42:00,
2013-02-01 01:47:00,72.9,69.4,29.62,NE,45,1.5,2.9,89,0.00,,,0.00,WSDL version 420,2013-01-31 14:47:00,
2013-02-01 01:52:00,72.7,69.4,29.62,East,98,0.9,2.9,90,0.00,,,0.00,WSDL version 420,2013-01-31 14:52:00,
2013-02-01 01:57:00,72.7,69.6,29.62,NE,51,0.7,3.4,90,0.00,,,0.00,WSDL version 420,2013-01-31 14:57:00,
2013-02-01 02:02:00,72.5,69.4,29.62,ESE,110,0.2,4.3,90,0.00,,,0.00,WSDL version 420,2013-01-31 15:02:00,
2013-02-01 02:07:00,72.4,69.4,29.62,NE,42,2.5,4.3,91,0.00,,,0.00,WSDL version 420,2013-01-31 15:07:00,
2013-02-01 02:12:00,72.4,69.6,29.62,ENE,68,0.5,4.3,91,0.00,,,0.00,WSDL version 420,2013-01-31 15:12:00,
2013-02-01 02:17:00,72.3,69.6,29.62,WSW,240,0.0,2.7,91,0.00,,,0.00,WSDL version 420,2013-01-31 15:17:00,
2013-02-01 02:22:00,72.2,69.2,29.62,East,87,0.2,2.7,90,0.00,,,0.00,WSDL version 420,2013-01-31 15:22:00,
2013-02-01 02:27:00,72.3,69.5,29.62,SW,214,0.2,1.6,91,0.00,,,0.00,WSDL version 420,2013-01-31 15:27:00,
2013-02-01 02:32:00,72.1,69.4,29.59,NE,39,1.6,3.6,91,0.00,,,0.00,WSDL version 420,2013-01-31 15:32:00,
2013-02-01 02:37:00,72.1,69.4,29.59,WNW,293,0.0,3.6,91,-99.99,,,-99.99,WSDL version 420,2013-01-31 15:37:00,
2013-02-01 02:42:00,72.1,69.4,29.59,NNE,20,0.0,3.4,91,0.00,,,0.00,WSDL version 420,2013-01-31 15:42:00,
2013-02-01 02:47:00,72.0,69.3,29.59,WNW,286,0.0,3.4,91,0.00,,,0.00,WSDL version 420,2013-01-31 15:47:00,
2013-02-01 02:52:00,72.0,69.1,29.59,North,3,1.5,2.9,91,0.00,,,0.00,WSDL version 420,2013-01-31 15:52:00,
2013-02-01 02:57:00,71.8,69.1,29.59,East,93,0.1,2.9,91,0.00,,,0.00,WSDL version 420,2013-01-31 15:57:00,
2013-02-01 03:02:00,71.8,69.1,29.59,East,90,0.3,4.0,91,0.00,,,0.00,WSDL version 420,2013-01-31 16:02:00,
2013-02-01 03:07:00,72.0,69.2,29.59,East,101,0.0,4.0,91,0.00,,,0.00,WSDL version 420,2013-01-31 16:07:00,
2013-02-01 03:12:00,72.0,69.2,29.59,East,90,0.2,2.9,91,0.00,,,0.00,WSDL version 420,2013-01-31 16:12:00,
2013-02-01 03:17:00,72.0,69.3,29.59,NNE,26,2.7,3.8,91,0.00,,,0.00,WSDL version 420,2013-01-31 16:17:00,
2013-02-01 03:22:00,72.1,69.2,29.59,East,82,2.9,4.3,90,0.00,,,0.00,WSDL version 420,2013-01-31 16:22:00,
2013-02-01 03:27:00,72.1,69.0,29.59,NNE,19,0.0,4.3,90,0.00,,,0.00,WSDL version 420,2013-01-31 16:27:00,
2013-02-01 03:32:00,72.1,69.0,29.59,ENE,68,1.5,4.3,89,-99.99,,,-99.99,WSDL version 420,2013-01-31 16:32:00,
2013-02-01 03:37:00,72.1,68.7,29.59,East,80,0.7,4.3,89,0.00,,,0.00,WSDL version 420,2013-01-31 16:37:00,
2013-02-01 03:42:00,-999.0,-99.9,29.59,East,96,1.0,3.8,-999,0.00,,,0.00,WSDL version 420,2013-01-31 16:42:00,
2013-02-01 03:47:00,72.3,68.6,29.59,East,90,2.7,5.8,88,0.00,,,0.00,WSDL version 420,2013-01-31 16:47:00,
2013-02-01 03:52:00,72.4,68.6,29.59,WSW,254,0.0,5.8,88,0.00,,,0.00,WSDL version 420,2013-01-31 16:52:00,
2013-02-01 03:57:00,72.3,68.1,29.59,East,93,1.7,3.8,87,0.00,,,0.00,WSDL version 420,2013-01-31 16:57:00,
2013-02-01 04:02:00,72.3,68.1,29.59,SE,135,1.2,4.9,87,0.00,,,0.00,WSDL version 420,2013-01-31 17:02:00,
2013-02-01 04:07:00,72.3,68.1,29.59,SE,124,0.5,4.9,87,0.00,,,0.00,WSDL version 420,2013-01-31 17:07:00,
2013-02-01 04:12:00,72.2,68.0,29.59,SSW,210,0.0,3.4,87,0.00,,,0.00,WSDL version 420,2013-01-31 17:12:00,
2013-02-01 04:17:00,72.1,67.9,29.56,ESE,119,0.8,3.1,87,0.00,,,0.00,WSDL version 420,2013-01-31 17:17:00,
2013-02-01 04:27:00,72.0,68.0,29.56,ESE,103,0.7,3.6,88,0.00,,,0.00,WSDL version 420,2013-01-31 17:27:00,
2013-02-01 04:32:00,72.0,68.1,29.56,SSE,155,1.3,3.6,88,0.00,,,0.00,WSDL version 420,2013-01-31 17:32:00,
2013-02-01 04:37:00,71.9,68.1,29.56,WNW,293,0.0,3.6,88,0.00,,,0.00,WSDL version 420,2013-01-31 17:37:00,
2013-02-01 04:42:00,71.8,68.0,29.56,East,96,0.4,2.9,88,0.00,,,0.00,WSDL version 420,2013-01-31 17:42:00,
2013-02-01 04:47:00,71.8,68.0,29.59,North,3,0.0,2.9,88,0.00,,,0.00,WSDL version 420,2013-01-31 17:47:00,
2013-02-01 04:52:00,71.8,68.0,29.59,East,84,0.0,1.3,88,0.00,,,0.00,WSDL version 420,2013-01-31 17:52:00,
2013-02-01 04:57:00,71.8,68.0,29.59,East,86,0.0,2.0,88,0.00,,,0.00,WSDL version 420,2013-01-31 17:57:00,
2013-02-01 05:02:00,71.6,67.8,29.59,East,93,0.8,4.0,89,0.00,,,0.00,WSDL version 420,2013-01-31 18:02:00,
2013-02-01 05:07:00,71.4,67.8,29.59,East,90,0.0,4.0,89,0.00,,,0.00,WSDL version 420,2013-01-31 18:07:00,
2013-02-01 05:12:00,71.2,67.6,29.59,ESE,116,0.0,0.0,89,0.00,,,0.00,WSDL version 420,2013-01-31 18:12:00,
2013-02-01 05:17:00,71.1,67.6,29.59,SE,139,0.0,0.0,89,0.00,,,0.00,WSDL version 420,2013-01-31 18:17:00,
2013-02-01 05:22:00,70.8,67.4,29.59,SE,138,0.0,0.0,89,0.00,,,0.00,WSDL version 420,2013-01-31 18:22:00,
2013-02-01 05:27:00,70.7,67.3,29.59,South,188,0.0,0.0,89,0.00,,,0.00,WSDL version 420,2013-01-31 18:27:00,
2013-02-01 05:32:00,70.5,67.1,29.59,SE,129,0.0,0.0,89,0.00,,,0.00,WSDL version 420,2013-01-31 18:32:00,
2013-02-01 05:37:00,70.3,66.9,29.59,East,90,0.0,0.0,89,0.00,,,0.00,WSDL version 420,2013-01-31 18:37:00,
2013-02-01 05:42:00,70.1,66.6,29.59,WSW,241,0.0,0.0,89,0.00,,,0.00,WSDL version 420,2013-01-31 18:42:00,
2013-02-01 05:47:00,69.8,66.5,29.59,West,270,0.0,0.0,90,0.00,,,0.00,WSDL version 420,2013-01-31 18:47:00,
2013-02-01 05:52:00,69.6,66.6,29.59,NE,51,0.0,0.0,90,0.00,,,0.00,WSDL version 420,2013-01-31 18:52:00,
2013-02-01 05:57:00,69.5,66.8,29.59,SSW,197,0.0,0.0,91,0.00,,,0.00,WSDL version 420,2013-01-31 18:57:00,
2013-02-01 06:02:00,69.3,66.6,29.59,South,189,0.0,0.0,91,0.00,,,0.00,WSDL version 420,2013-01-31 19:02:00,
2013-02-01 06:07:00,69.3,66.6,29.59,SE,129,0.0,0.0,92,0.00,,,0.00,WSDL version 420,2013-01-31 19:07:00,
2013-02-01 06:12:00,69.3,66.9,29.59,SE,135,0.0,1.3,92,-99.99,,,-99.99,WSDL version 420,2013-01-31 19:12:00,
2013-02-01 06:17:00,69.4,67.4,29.59,SSE,163,0.0,1.3,93,0.00,,,0.00,WSDL version 420,2013-01-31 19:17:00,
2013-02-01 06:22:00,69.9,67.9,29.59,East,83,0.0,0.0,93,0.00,,,0.00,WSDL version 420,2013-01-31 19:22:00,
2013-02-01 06:27:00,70.0,68.0,29.59,SSW,200,0.0,0.0,93,0.00,,,0.00,WSDL version 420,2013-01-31 19:27:00,
2013-02-01 06:32:00,69.9,67.9,29.59,NNE,23,0.0,0.0,93,0.00,,,0.00,WSDL version 420,2013-01-31 19:32:00,
2013-02-01 06:37:00,69.8,67.8,29.59,SE,132,0.0,0.0,93,0.00,,,0.00,WSDL version 420,2013-01-31 19:37:00,
2013-02-01 06:42:00,69.9,67.8,29.59,East,98,0.0,0.0,93,0.00,,,0.00,WSDL version 420,2013-01-31 19:42:00,
2013-02-01 06:47:00,70.0,68.2,29.59,SW,225,0.0,0.9,94,0.00,,,0.00,WSDL version 420,2013-01-31 19:47:00,
2013-02-01 06:52:00,70.2,68.5,29.59,WNW,293,0.0,0.9,94,0.00,,,0.00,WSDL version 420,2013-01-31 19:52:00,
2013-02-01 06:57:00,70.2,68.5,29.59,West,270,0.0,0.0,94,0.00,,,0.00,WSDL version 420,2013-01-31 19:57:00,
2013-02-01 07:02:00,70.2,68.5,29.59,WSW,257,0.0,0.0,94,0.00,,,0.00,WSDL version 420,2013-01-31 20:02:00,
2013-02-01 07:07:00,70.4,68.8,29.59,WSW,248,0.0,0.0,96,0.00,,,0.00,WSDL version 420,2013-01-31 20:07:00,
2013-02-01 07:12:00,70.9,69.5,29.59,WSW,248,0.0,0.0,96,0.00,,,0.00,WSDL version 420,2013-01-31 20:12:00,
2013-02-01 07:17:00,71.4,70.0,29.62,NE,34,0.0,0.0,96,0.00,,,0.00,WSDL version 420,2013-01-31 20:17:00,
2013-02-01 07:22:00,72.0,70.7,29.62,East,100,0.0,0.0,96,0.00,,,0.00,WSDL version 420,2013-01-31 20:22:00,
2013-02-01 07:27:00,72.5,71.2,29.62,NE,45,0.0,0.0,96,0.00,,,0.00,WSDL version 420,2013-01-31 20:27:00,
2013-02-01 07:32:00,73.4,72.1,29.62,NE,53,0.0,0.0,96,-99.99,,,-99.99,WSDL version 420,2013-01-31 20:32:00,
2013-02-01 07:37:00,74.0,72.4,29.62,NNE,26,0.0,0.0,94,0.00,,,0.00,WSDL version 420,2013-01-31 20:37:00,
2013-02-01 07:42:00,74.4,72.3,29.62,North,3,0.4,0.9,92,0.00,,,0.00,WSDL version 420,2013-01-31 20:42:00,
2013-02-01 07:47:00,74.8,72.0,29.62,SSW,212,0.0,0.9,91,0.00,,,0.00,WSDL version 420,2013-01-31 20:47:00,
2013-02-01 07:52:00,75.1,71.8,29.62,SW,225,0.0,0.0,89,0.00,,,0.00,WSDL version 420,2013-01-31 20:52:00,
2013-02-01 07:57:00,75.5,71.8,29.62,SSW,203,0.0,0.0,88,0.00,,,0.00,WSDL version 420,2013-01-31 20:57:00,
2013-02-01 08:02:00,75.7,71.9,29.62,SSW,203,0.0,0.0,88,0.00,,,0.00,WSDL version 420,2013-01-31 21:02:00,
2013-02-01 08:07:00,75.9,71.7,29.62,ESE,119,0.0,0.0,86,0.00,,,0.00,WSDL version 420,2013-01-31 21:07:00,
2013-02-01 08:12:00,75.7,70.6,29.62,ESE,116,0.0,0.9,83,0.00,,,0.00,WSDL version 420,2013-01-31 21:12:00,
2013-02-01 08:17:00,76.5,71.2,29.62,WSW,253,0.0,0.9,84,-99.99,,,-99.99,WSDL version 420,2013-01-31 21:17:00,
2013-02-01 08:22:00,78.2,72.6,29.62,NE,42,0.0,0.0,82,0.00,,,0.00,WSDL version 420,2013-01-31 21:22:00,
2013-02-01 08:27:00,79.7,72.9,29.62,NNW,334,0.9,2.9,78,0.00,,,0.00,WSDL version 420,2013-01-31 21:27:00,
2013-02-01 08:32:00,80.7,72.1,29.62,NNW,340,0.0,2.9,75,0.00,,,0.00,WSDL version 420,2013-01-31 21:32:00,
2013-02-01 08:37:00,80.1,70.7,29.62,NW,318,0.0,0.0,73,-99.99,,,-99.99,WSDL version 420,2013-01-31 21:37:00,
2013-02-01 08:42:00,79.9,70.2,29.62,NNE,23,0.8,2.9,71,-99.99,,,-99.99,WSDL version 420,2013-01-31 21:42:00,
2013-02-01 08:47:00,80.1,69.7,29.62,North,354,0.7,2.9,70,0.00,,,0.00,WSDL version 420,2013-01-31 21:47:00,
2013-02-01 08:52:00,80.2,69.5,29.62,WNW,302,0.0,2.7,70,0.00,,,0.00,WSDL version 420,2013-01-31 21:52:00,
2013-02-01 08:57:00,81.1,70.3,29.62,NW,312,0.0,2.9,69,0.00,,,0.00,WSDL version 420,2013-01-31 21:57:00,
2013-02-01 09:02:00,83.1,67.4,29.62,West,281,3.6,6.0,60,0.00,,,0.00,WSDL version 420,2013-01-31 22:02:00,
2013-02-01 09:07:00,83.6,69.1,29.62,NW,318,0.6,6.0,62,0.00,,,0.00,WSDL version 420,2013-01-31 22:07:00,
2013-02-01 09:12:00,85.5,69.3,29.62,West,281,3.0,4.9,57,0.00,,,0.00,WSDL version 420,2013-01-31 22:12:00,
2013-02-01 09:17:00,87.1,68.5,29.62,West,276,1.9,4.9,53,0.00,,,0.00,WSDL version 420,2013-01-31 22:17:00,
2013-02-01 09:22:00,87.9,66.6,29.62,WNW,289,0.7,5.8,49,0.00,,,0.00,WSDL version 420,2013-01-31 22:22:00,
2013-02-01 09:27:00,88.6,64.7,29.62,West,280,4.1,7.8,44,0.00,,,0.00,WSDL version 420,2013-01-31 22:27:00,
2013-02-01 09:32:00,89.2,64.7,29.62,NNW,347,2.4,7.8,44,0.00,,,0.00,WSDL version 420,2013-01-31 22:32:00,
2013-02-01 09:37:00,90.3,65.4,29.62,West,280,4.0,6.3,42,0.00,,,0.00,WSDL version 420,2013-01-31 22:37:00,
2013-02-01 09:42:00,90.4,63.5,29.62,West,281,4.5,6.5,41,0.00,,,0.00,WSDL version 420,2013-01-31 22:42:00,
2013-02-01 09:47:00,90.8,64.0,29.62,NNW,332,3.4,6.5,41,0.00,,,0.00,WSDL version 420,2013-01-31 22:47:00,
2013-02-01 09:52:00,92.0,64.9,29.62,West,264,3.1,6.0,40,0.00,,,0.00,WSDL version 420,2013-01-31 22:52:00,
2013-02-01 09:57:00,92.8,64.4,29.62,NW,305,3.7,6.3,39,0.00,,,0.00,WSDL version 420,2013-01-31 22:57:00,
2013-02-01 10:02:00,93.4,64.2,29.62,WNW,283,3.2,6.3,38,0.00,,,0.00,WSDL version 420,2013-01-31 23:02:00,
2013-02-01 10:07:00,94.1,64.6,29.62,NW,318,3.0,6.3,38,-99.99,,,-99.99,WSDL version 420,2013-01-31 23:07:00,
2013-02-01 10:12:00,94.0,62.8,29.62,WNW,286,2.4,6.3,35,0.00,,,0.00,WSDL version 420,2013-01-31 23:12:00,
2013-02-01 10:17:00,93.5,60.7,29.62,WNW,286,3.6,7.8,34,0.00,,,0.00,WSDL version 420,2013-01-31 23:17:00,
2013-02-01 10:22:00,94.4,60.2,29.62,WNW,287,4.9,7.8,32,0.00,,,0.00,WSDL version 420,2013-01-31 23:22:00,
2013-02-01 10:27:00,93.2,60.1,29.62,West,270,3.5,6.0,34,0.00,,,0.00,WSDL version 420,2013-01-31 23:27:00,
2013-02-01 10:32:00,92.9,61.2,29.62,West,264,3.2,6.3,35,0.00,,,0.00,WSDL version 420,2013-01-31 23:32:00,
2013-02-01 10:37:00,92.6,61.1,29.62,West,274,2.1,6.5,35,0.00,,,0.00,WSDL version 420,2013-01-31 23:37:00,
2013-02-01 10:42:00,92.0,60.8,29.62,West,270,2.6,6.5,36,0.00,,,0.00,WSDL version 420,2013-01-31 23:42:00,
2013-02-01 10:47:00,91.2,59.8,29.59,West,276,3.2,6.7,35,0.00,,,0.00,WSDL version 420,2013-01-31 23:47:00,
2013-02-01 10:52:00,90.2,59.3,29.59,West,263,2.0,6.7,37,0.00,,,0.00,WSDL version 420,2013-01-31 23:52:00,
2013-02-01 10:57:00,89.7,60.7,29.59,SE,145,1.3,5.4,39,0.00,,,0.00,WSDL version 420,2013-01-31 23:57:00,
2013-02-01 11:02:00,86.4,60.6,29.65,NNE,19,4.7,6.7,44,0.00,,,0.00,WSDL version 420,2013-02-01 00:02:00,
2013-02-01 11:07:00,82.0,61.0,29.65,East,96,4.9,7.4,51,0.00,,,0.00,WSDL version 420,2013-02-01 00:07:00,
2013-02-01 11:12:00,79.5,61.8,29.65,NE,35,4.9,7.6,57,-99.99,,,-99.99,WSDL version 420,2013-02-01 00:12:00,
2013-02-01 11:17:00,78.0,62.8,29.68,NNW,328,3.9,7.6,60,0.00,,,0.00,WSDL version 420,2013-02-01 00:17:00,
2013-02-01 11:22:00,76.8,63.0,29.68,NNW,338,4.4,7.4,64,0.00,,,0.00,WSDL version 420,2013-02-01 00:22:00,
2013-02-01 11:27:00,75.6,63.3,29.68,WSW,248,3.7,6.5,66,0.00,,,0.00,WSDL version 420,2013-02-01 00:27:00,
2013-02-01 11:32:00,74.6,63.5,29.68,NW,321,4.6,7.4,69,-99.99,,,-99.99,WSDL version 420,2013-02-01 00:32:00,
2013-02-01 11:37:00,73.9,63.6,29.68,North,349,3.7,7.4,71,0.00,,,0.00,WSDL version 420,2013-02-01 00:37:00,
2013-02-01 11:42:00,73.5,63.9,29.68,NE,51,3.5,12.5,73,0.00,,,0.00,WSDL version 420,2013-02-01 00:42:00,
2013-02-01 11:47:00,72.9,64.7,29.68,WSW,255,4.4,12.5,76,0.00,,,0.00,WSDL version 420,2013-02-01 00:47:00,
2013-02-01 11:52:00,72.5,65.4,29.68,NW,309,4.2,7.4,79,0.00,,,0.00,WSDL version 420,2013-02-01 00:52:00,
2013-02-01 11:57:00,72.1,65.6,29.68,North,354,5.5,8.1,81,0.00,,,0.00,WSDL version 420,2013-02-01 00:57:00,
2013-02-01 12:02:00,71.7,65.6,29.68,WNW,290,4.8,8.1,81,0.00,,,0.00,WSDL version 420,2013-02-01 01:02:00,
2013-02-01 12:07:00,71.5,65.4,29.68,NNW,338,2.3,6.0,81,0.00,,,0.00,WSDL version 420,2013-02-01 01:07:00,
2013-02-01 12:12:00,71.6,65.4,29.68,WSW,255,3.0,8.7,81,0.00,,,0.00,WSDL version 420,2013-02-01 01:12:00,
2013-02-01 12:17:00,71.6,65.4,29.65,NW,319,3.8,8.7,81,0.00,,,0.00,WSDL version 420,2013-02-01 01:17:00,
2013-02-01 12:22:00,71.5,65.6,29.65,NW,315,3.4,7.6,82,0.00,,,0.00,WSDL version 420,2013-02-01 01:22:00,
2013-02-01 12:27:00,71.1,65.8,29.65,SW,234,4.2,8.1,84,0.00,,,0.00,WSDL version 420,2013-02-01 01:27:00,
2013-02-01 12:32:00,71.1,66.3,29.62,NNW,331,3.7,8.1,86,0.00,,,0.00,WSDL version 420,2013-02-01 01:32:00,
2013-02-01 12:37:00,71.6,66.7,29.62,WNW,295,4.1,7.8,84,0.00,,,0.00,WSDL version 420,2013-02-01 01:37:00,
2013-02-01 12:42:00,71.9,66.7,29.62,NNW,340,4.3,8.5,83,0.00,,,0.00,WSDL version 420,2013-02-01 01:42:00,
2013-02-01 12:47:00,72.5,67.0,29.62,NNE,23,3.7,9.8,82,0.00,,,0.00,WSDL version 420,2013-02-01 01:47:00,
2013-02-01 12:52:00,72.8,66.4,29.62,NNW,338,3.1,9.8,80,0.00,,,0.00,WSDL version 420,2013-02-01 01:52:00,
2013-02-01 12:57:00,73.0,65.9,29.62,ESE,119,4.0,8.1,78,0.00,,,0.00,WSDL version 420,2013-02-01 01:57:00,
2013-02-01 13:02:00,73.0,65.2,29.59,NNW,328,4.5,8.1,76,0.00,,,0.00,WSDL version 420,2013-02-01 02:02:00,
2013-02-01 13:07:00,73.4,65.3,29.59,NNE,16,3.4,8.7,75,-99.99,,,-99.99,WSDL version 420,2013-02-01 02:07:00,
2013-02-01 13:17:00,72.7,64.3,29.62,NE,35,4.4,12.1,75,0.00,,,0.00,WSDL version 420,2013-02-01 02:17:00,
2013-02-01 13:22:00,72.4,64.1,29.62,NNE,26,4.5,12.1,75,0.00,,,0.00,WSDL version 420,2013-02-01 02:22:00,
2013-02-01 13:27:00,72.4,64.3,29.62,North,349,2.9,6.0,76,0.00,,,0.00,WSDL version 420,2013-02-01 02:27:00,
2013-02-01 13:32:00,72.8,64.8,29.62,NW,305,4.0,7.6,76,0.00,,,0.00,WSDL version 420,2013-02-01 02:32:00,
2013-02-01 13:37:00,73.0,64.4,29.62,NW,325,4.9,7.6,74,0.00,,,0.00,WSDL version 420,2013-02-01 02:37:00,
2013-02-01 13:42:00,73.0,64.2,29.62,North,8,3.6,6.5,74,0.00,,,0.00,WSDL version 420,2013-02-01 02:42:00,
2013-02-01 13:47:00,72.8,64.1,29.62,NNE,30,3.6,6.5,74,0.00,,,0.00,WSDL version 420,2013-02-01 02:47:00,
2013-02-01 13:52:00,72.4,63.7,29.62,NNW,331,2.7,6.5,74,0.00,,,0.00,WSDL version 420,2013-02-01 02:52:00,
2013-02-01 13:57:00,72.2,63.6,29.62,North,360,2.7,6.0,75,0.00,,,0.00,WSDL version 420,2013-02-01 02:57:00,
2013-02-01 14:02:00,71.8,63.5,29.59,WNW,296,3.9,6.0,75,0.00,,,0.00,WSDL version 420,2013-02-01 03:02:00,
2013-02-01 14:07:00,71.5,63.9,29.59,NNW,331,3.3,6.0,78,0.00,,,0.00,WSDL version 420,2013-02-01 03:07:00,
2013-02-01 14:12:00,71.3,64.5,29.59,NNE,23,3.2,6.0,80,0.00,,,0.00,WSDL version 420,2013-02-01 03:12:00,
2013-02-01 14:17:00,70.9,64.6,29.59,North,4,2.1,6.5,81,0.00,,,0.00,WSDL version 420,2013-02-01 03:17:00,
2013-02-01 14:22:00,70.7,64.7,29.59,NW,318,2.5,6.5,82,0.00,,,0.00,WSDL version 420,2013-02-01 03:22:00,
2013-02-01 14:27:00,70.6,65.5,29.59,ENE,76,4.1,5.6,86,0.00,,,0.00,WSDL version 420,2013-02-01 03:27:00,
2013-02-01 14:32:00,70.3,65.7,29.62,SSE,149,0.4,6.0,86,0.00,,,0.00,WSDL version 420,2013-02-01 03:32:00,
2013-02-01 14:37:00,70.2,65.8,29.62,ENE,71,2.6,6.0,87,0.00,,,0.00,WSDL version 420,2013-02-01 03:37:00,
2013-02-01 14:42:00,70.0,65.8,29.62,WSW,239,1.3,5.4,87,0.00,,,0.00,WSDL version 420,2013-02-01 03:42:00,
2013-02-01 14:47:00,69.9,65.8,29.62,SSW,206,2.5,8.1,87,0.00,,,0.00,WSDL version 420,2013-02-01 03:47:00,
2013-02-01 14:52:00,69.7,65.8,29.62,WSW,251,3.1,8.1,88,0.00,,,0.00,WSDL version 420,2013-02-01 03:52:00,
2013-02-01 14:57:00,69.4,65.8,29.62,SSE,148,2.2,6.0,89,0.00,,,0.00,WSDL version 420,2013-02-01 03:57:00,
2013-02-01 15:02:00,69.4,66.0,29.62,NW,321,0.2,6.0,89,0.00,,,0.00,WSDL version 420,2013-02-01 04:02:00,
2013-02-01 15:07:00,69.7,66.7,29.62,West,281,3.8,6.0,91,0.00,,,0.00,WSDL version 420,2013-02-01 04:07:00,
2013-02-01 15:12:00,69.8,67.1,29.62,WNW,302,2.6,6.0,91,0.00,,,0.00,WSDL version 420,2013-02-01 04:12:00,
2013-02-01 15:17:00,69.6,66.9,29.59,NW,321,2.6,5.6,91,0.00,,,0.00,WSDL version 420,2013-02-01 04:17:00,
2013-02-01 15:22:00,69.6,66.9,29.59,West,276,2.8,5.8,91,0.00,,,0.00,WSDL version 420,2013-02-01 04:22:00,
2013-02-01 15:27:00,69.6,66.9,29.59,WNW,286,3.6,7.8,91,0.00,,,0.00,WSDL version 420,2013-02-01 04:27:00,
2013-02-01 15:32:00,69.4,66.7,29.62,NNE,19,1.5,7.8,90,0.00,,,0.00,WSDL version 420,2013-02-01 04:32:00,
2013-02-01 15:37:00,69.4,66.7,29.62,SW,214,4.0,6.3,91,0.00,,,0.00,WSDL version 420,2013-02-01 04:37:00,
2013-02-01 15:42:00,69.4,66.5,29.62,SW,222,1.5,5.4,90,-99.99,,,-99.99,WSDL version 420,2013-02-01 04:42:00,
2013-02-01 15:47:00,69.4,66.4,29.59,NW,304,4.5,7.2,90,0.00,,,0.00,WSDL version 420,2013-02-01 04:47:00,
2013-02-01 15:52:00,69.5,66.2,29.59,NW,311,2.8,7.2,89,0.00,,,0.00,WSDL version 420,2013-02-01 04:52:00,
2013-02-01 15:57:00,69.6,66.2,29.59,WNW,296,3.4,7.6,89,0.00,,,0.00,WSDL version 420,2013-02-01 04:57:00,
2013-02-01 16:02:00,69.6,65.7,29.59,ESE,119,4.4,7.6,87,0.00,,,0.00,WSDL version 420,2013-02-01 05:02:00,
2013-02-01 16:07:00,69.7,65.4,29.59,WNW,301,2.5,6.3,86,0.00,,,0.00,WSDL version 420,2013-02-01 05:07:00,
2013-02-01 16:12:00,69.8,65.3,29.59,NNW,329,2.7,6.3,86,0.00,,,0.00,WSDL version 420,2013-02-01 05:12:00,
2013-02-01 16:17:00,69.7,65.2,29.59,WNW,299,3.7,8.5,86,0.00,,,0.00,WSDL version 420,2013-02-01 05:17:00,
2013-02-01 16:22:00,69.6,65.1,29.59,West,281,3.5,10.3,86,0.00,,,0.00,WSDL version 420,2013-02-01 05:22:00,
2013-02-01 16:27:00,69.6,65.1,29.59,NNE,26,3.3,10.3,86,0.00,,,0.00,WSDL version 420,2013-02-01 05:27:00,
2013-02-01 16:32:00,69.6,65.0,29.59,WNW,302,4.8,8.7,84,0.00,,,0.00,WSDL version 420,2013-02-01 05:32:00,
2013-02-01 16:37:00,69.6,64.5,29.59,West,276,5.6,9.8,83,0.00,,,0.00,WSDL version 420,2013-02-01 05:37:00,
2013-02-01 16:42:00,69.4,64.2,29.59,WNW,301,4.7,9.8,83,0.00,,,0.00,WSDL version 420,2013-02-01 05:42:00,
2013-02-01 16:47:00,69.2,64.0,29.65,West,281,6.7,11.0,84,0.00,,,0.00,WSDL version 420,2013-02-01 05:47:00,
2013-02-01 16:52:00,68.0,63.9,29.65,WNW,286,7.3,12.8,88,0.20,,,0.20,WSDL version 420,2013-02-01 05:52:00,
2013-02-01 16:57:00,66.4,62.8,29.65,North,354,6.6,14.3,89,0.62,,,0.62,WSDL version 420,2013-02-01 05:57:00,
2013-02-01 17:02:00,65.7,62.9,29.65,WNW,301,3.1,14.3,92,0.66,,,0.66,WSDL version 420,2013-02-01 06:02:00,
2013-02-01 17:07:00,65.2,63.2,29.65,WNW,289,1.9,6.3,93,0.75,,,0.75,WSDL version 420,2013-02-01 06:07:00,
2013-02-01 17:12:00,65.1,63.6,29.65,WNW,301,2.6,6.3,96,-99.99,,,-99.99,WSDL version 420,2013-02-01 06:12:00,
2013-02-01 17:22:00,64.8,64.1,29.62,NNW,329,1.5,4.7,98,0.75,,,0.75,WSDL version 420,2013-02-01 06:22:00,
2013-02-01 17:27:00,64.6,64.1,29.62,WNW,300,3.2,6.3,99,0.79,,,0.79,WSDL version 420,2013-02-01 06:27:00,
2013-02-01 17:32:00,64.5,64.2,29.65,NW,315,4.1,6.3,99,0.79,,,0.79,WSDL version 420,2013-02-01 06:32:00,
2013-02-01 17:37:00,64.3,64.2,29.65,WSW,248,2.8,8.1,100,0.79,,,0.79,WSDL version 420,2013-02-01 06:37:00,
2013-02-01 17:42:00,64.2,64.2,29.65,NW,312,3.4,8.1,100,0.83,,,0.83,WSDL version 420,2013-02-01 06:42:00,
2013-02-01 17:47:00,64.1,64.1,29.62,NW,318,3.9,8.5,100,0.83,,,0.83,WSDL version 420,2013-02-01 06:47:00,
2013-02-01 17:52:00,64.1,64.1,29.62,WNW,298,5.3,11.0,100,0.63,,,0.83,WSDL version 420,2013-02-01 06:52:00,
2013-02-01 17:57:00,64.0,63.9,29.62,NNW,328,2.8,11.0,100,0.21,,,0.83,WSDL version 420,2013-02-01 06:57:00,
2013-02-01 18:02:00,63.9,63.9,29.65,West,278,2.9,8.1,100,0.21,,,0.87,WSDL version 420,2013-02-01 07:02:00,
2013-02-01 18:07:00,63.8,63.8,29.65,NW,313,3.1,6.5,100,-99.99,,,-99.99,WSDL version 420,2013-02-01 07:07:00,
2013-02-01 18:12:00,63.7,63.7,29.65,North,350,2.8,8.7,100,0.12,,,0.87,WSDL version 420,2013-02-01 07:12:00,
2013-02-01 18:17:00,63.9,63.9,29.65,WNW,295,3.3,8.7,100,0.12,,,0.87,WSDL version 420,2013-02-01 07:17:00,
2013-02-01 18:22:00,64.0,64.0,29.65,West,280,3.4,11.0,100,0.16,,,0.91,WSDL version 420,2013-02-01 07:22:00,
2013-02-01 18:27:00,64.0,64.0,29.65,North,354,2.2,11.0,100,-99.99,,,-99.99,WSDL version 420,2013-02-01 07:27:00,
2013-02-01 18:32:00,64.2,64.2,29.65,WNW,299,4.6,8.1,100,0.12,,,0.91,WSDL version 420,2013-02-01 07:32:00,
2013-02-01 18:37:00,64.0,64.0,29.65,NW,318,2.7,11.0,100,0.12,,,0.91,WSDL version 420,2013-02-01 07:37:00,
2013-02-01 18:42:00,63.9,63.9,29.65,NW,319,3.4,11.0,100,0.08,,,0.91,WSDL version 420,2013-02-01 07:42:00,
2013-02-01 18:47:00,63.9,63.9,29.65,NW,312,1.9,6.0,100,-99.99,,,-99.99,WSDL version 420,2013-02-01 07:47:00,
2013-02-01 18:52:00,63.9,63.9,29.65,West,264,1.3,6.0,100,0.08,,,0.91,WSDL version 420,2013-02-01 07:52:00,
2013-02-01 18:57:00,63.9,63.9,29.65,NW,309,1.2,6.5,100,0.12,,,0.95,WSDL version 420,2013-02-01 07:57:00,
2013-02-01 19:02:00,64.0,64.0,29.65,WNW,293,3.6,6.5,100,0.08,,,0.95,WSDL version 420,2013-02-01 08:02:00,
2013-02-01 19:07:00,64.0,64.0,29.65,West,276,2.6,6.3,100,0.08,,,0.95,WSDL version 420,2013-02-01 08:07:00,
2013-02-01 19:12:00,64.1,64.1,29.65,NW,315,1.3,4.3,100,0.08,,,0.95,WSDL version 420,2013-02-01 08:12:00,
2013-02-01 19:17:00,64.1,64.1,29.65,WNW,285,1.9,3.8,100,0.08,,,0.95,WSDL version 420,2013-02-01 08:17:00,
2013-02-01 19:22:00,64.2,64.2,29.65,West,270,2.0,6.0,100,0.04,,,0.95,WSDL version 420,2013-02-01 08:22:00,
2013-02-01 19:27:00,64.3,64.3,29.65,NW,304,1.9,6.0,100,0.08,,,0.99,WSDL version 420,2013-02-01 08:27:00,
2013-02-01 19:32:00,64.4,64.4,29.68,WNW,290,0.8,3.6,100,0.08,,,0.99,WSDL version 420,2013-02-01 08:32:00,
2013-02-01 19:37:00,64.4,64.4,29.68,ENE,70,0.3,2.9,100,0.08,,,0.99,WSDL version 420,2013-02-01 08:37:00,
2013-02-01 19:42:00,64.6,64.6,29.68,NE,56,2.4,6.0,100,0.08,,,0.99,WSDL version 420,2013-02-01 08:42:00,
2013-02-01 19:47:00,64.6,64.6,29.62,ENE,75,1.8,6.0,100,0.08,,,0.99,WSDL version 420,2013-02-01 08:47:00,
2013-02-01 19:52:00,64.6,64.6,29.62,NNW,338,0.1,4.9,100,0.08,,,0.99,WSDL version 420,2013-02-01 08:52:00,
2013-02-01 19:57:00,64.6,64.6,29.62,NNW,330,0.0,1.6,100,0.04,,,0.99,WSDL version 420,2013-02-01 08:57:00,
2013-02-01 20:02:00,64.6,64.6,29.62,NNW,334,0.0,1.6,100,0.04,,,0.99,WSDL version 420,2013-02-01 09:02:00,
2013-02-01 20:07:00,64.6,64.6,29.62,NE,37,2.6,6.3,100,0.04,,,0.99,WSDL version 420,2013-02-01 09:07:00,
2013-02-01 20:12:00,64.6,64.6,29.62,East,87,4.6,7.4,100,0.04,,,0.99,WSDL version 420,2013-02-01 09:12:00,
2013-02-01 20:17:00,64.5,64.5,29.59,East,84,4.2,12.1,100,0.04,,,0.99,WSDL version 420,2013-02-01 09:17:00,
2013-02-01 20:22:00,64.4,64.4,29.59,East,87,5.5,12.1,100,0.04,,,0.99,WSDL version 420,2013-02-01 09:22:00,
2013-02-01 20:27:00,64.4,64.4,29.59,SSW,209,1.3,10.7,100,0.00,,,0.99,WSDL version 420,2013-02-01 09:27:00,
2013-02-01 20:32:00,64.5,64.5,29.59,West,260,2.8,8.1,100,0.00,,,0.99,WSDL version 420,2013-02-01 09:32:00,
2013-02-01 20:37:00,64.6,64.6,29.59,NE,35,1.5,5.4,100,0.00,,,0.99,WSDL version 420,2013-02-01 09:37:00,
2013-02-01 20:42:00,64.8,64.8,29.59,ENE,75,1.2,3.6,100,0.00,,,0.99,WSDL version 420,2013-02-01 09:42:00,
2013-02-01 20:47:00,64.8,64.8,29.62,WNW,290,3.6,5.6,100,0.00,,,0.99,WSDL version 420,2013-02-01 09:47:00,
2013-02-01 20:52:00,64.8,64.8,29.62,WNW,293,1.4,5.6,100,0.00,,,0.99,WSDL version 420,2013-02-01 09:52:00,
2013-02-01 20:57:00,64.8,64.8,29.62,North,352,2.2,4.3,100,0.00,,,0.99,WSDL version 420,2013-02-01 09:57:00,
2013-02-01 21:02:00,64.8,64.8,29.59,NW,321,0.9,4.3,100,0.00,,,0.99,WSDL version 420,2013-02-01 10:02:00,
2013-02-01 21:07:00,64.8,64.8,29.59,NW,321,1.6,4.3,100,0.00,,,0.99,WSDL version 420,2013-02-01 10:07:00,
2013-02-01 21:12:00,64.8,64.8,29.59,North,360,0.7,3.6,100,0.00,,,0.99,WSDL version 420,2013-02-01 10:12:00,
2013-02-01 21:17:00,64.8,64.8,29.59,NW,313,1.1,3.1,100,0.00,,,0.99,WSDL version 420,2013-02-01 10:17:00,
2013-02-01 21:22:00,64.8,64.8,29.59,WNW,283,1.7,4.5,100,0.00,,,0.99,WSDL version 420,2013-02-01 10:22:00,
2013-02-01 21:27:00,64.8,64.8,29.59,West,280,3.0,4.5,100,0.00,,,0.99,WSDL version 420,2013-02-01 10:27:00,
2013-02-01 21:32:00,64.8,64.8,29.62,NW,312,2.3,4.3,100,0.00,,,0.99,WSDL version 420,2013-02-01 10:32:00,
2013-02-01 21:37:00,64.8,64.8,29.62,WNW,296,1.9,4.7,100,0.00,,,0.99,WSDL version 420,2013-02-01 10:37:00,
2013-02-01 21:42:00,64.7,64.7,29.62,WNW,302,2.8,5.6,100,0.00,,,0.99,WSDL version 420,2013-02-01 10:42:00,
2013-02-01 21:47:00,64.6,64.6,29.62,WNW,287,2.7,5.6,100,0.00,,,0.99,WSDL version 420,2013-02-01 10:47:00,
2013-02-01 21:57:00,64.5,64.5,29.62,North,356,2.5,6.0,100,-99.99,,,-99.99,WSDL version 420,2013-02-01 10:57:00,
2013-02-01 22:02:00,64.6,64.6,29.62,NW,326,2.9,6.0,100,0.00,,,0.99,WSDL version 420,2013-02-01 11:02:00,
2013-02-01 22:07:00,64.6,64.6,29.62,NNW,346,1.7,4.9,100,0.00,,,0.99,WSDL version 420,2013-02-01 11:07:00,
2013-02-01 22:17:00,64.6,64.6,29.62,NW,319,2.3,5.4,100,0.00,,,0.99,WSDL version 420,2013-02-01 11:17:00,
2013-02-01 22:27:00,64.5,64.5,29.62,NNE,29,3.3,6.5,100,0.00,,,0.99,WSDL version 420,2013-02-01 11:27:00,
2013-02-01 22:32:00,64.4,64.4,29.62,NNW,335,2.4,6.5,100,0.00,,,0.99,WSDL version 420,2013-02-01 11:32:00,
2013-02-01 22:37:00,64.2,64.2,29.62,NW,305,2.0,4.3,100,0.00,,,0.99,WSDL version 420,2013-02-01 11:37:00,
2013-02-01 22:42:00,64.1,64.1,29.62,West,276,2.6,4.9,100,0.00,,,0.99,WSDL version 420,2013-02-01 11:42:00,
2013-02-01 22:47:00,64.0,64.0,29.62,NNW,333,2.8,7.2,99,0.00,,,0.99,WSDL version 420,2013-02-01 11:47:00,
2013-02-01 22:57:00,64.0,63.7,29.62,WNW,301,2.3,5.4,99,-99.99,,,-99.99,WSDL version 420,2013-02-01 11:57:00,
2013-02-01 23:02:00,64.0,63.7,29.62,North,6,2.4,4.7,99,0.00,,,0.99,WSDL version 420,2013-02-01 12:02:00,
2013-02-01 23:07:00,64.0,63.7,29.62,WNW,302,1.9,4.3,99,0.00,,,0.99,WSDL version 420,2013-02-01 12:07:00,
2013-02-01 23:12:00,64.0,63.6,29.62,WNW,296,2.7,4.3,99,0.00,,,0.99,WSDL version 420,2013-02-01 12:12:00,
2013-02-01 23:17:00,64.0,63.6,29.59,West,278,2.2,4.3,99,0.00,,,0.99,WSDL version 420,2013-02-01 12:17:00,
2013-02-01 23:22:00,64.0,63.7,29.59,NW,308,2.6,6.0,99,0.00,,,0.99,WSDL version 420,2013-02-01 12:22:00,
2013-02-01 23:27:00,64.2,63.9,29.59,NW,315,0.8,6.0,99,0.00,,,0.99,WSDL version 420,2013-02-01 12:27:00,
2013-02-01 23:32:00,64.3,64.0,29.62,NNW,338,2.2,5.6,99,0.00,,,0.99,WSDL version 420,2013-02-01 12:32:00,
2013-02-01 23:37:00,64.4,64.1,29.62,NW,312,1.1,5.6,99,0.00,,,0.99,WSDL version 420,2013-02-01 12:37:00,
2013-02-01 23:42:00,64.5,64.2,29.62,WNW,289,2.7,4.7,99,-99.99,,,-99.99,WSDL version 420,2013-02-01 12:42:00,
2013-02-01 23:47:00,64.8,64.4,29.62,NNW,334,3.6,6.0,99,0.00,,,0.99,WSDL version 420,2013-02-01 12:47:00,
2013-02-01 23:52:00,64.9,64.7,29.62,WNW,293,0.7,6.0,100,0.00,,,0.99,WSDL version 420,2013-02-01 12:52:00,
2013-02-01 23:57:00,64.9,64.8,29.62,WNW,286,3.5,5.8,99,0.00,,,0.99,WSDL version 420,2013-02-01 12:57:00,